| time (UTC) | temp C | wind direction | speed KPH | gust KPH | rain 1hr cm | rain 24hr cm | rain mn cm | humidity % | barometer mb |
| 20260904234507 | 35 | 62 | 4.8 | 16.1 | 0.00 | 0.00 | 0.00 | 32 | 1002.8 |
| 20260904234002 | 35 | 98 | 3.2 | 16.1 | 0.00 | 0.00 | 0.00 | 32 | 1002.7 |
| 20260904233501 | 35 | 100 | 4.8 | 16.1 | 0.00 | 0.00 | 0.00 | 32 | 1002.7 |
| 20260904233100 | 35 | 101 | 4.8 | 14.5 | 0.00 | 0.00 | 0.00 | 31 | 1002.7 |
| 20260904232505 | 35 | 104 | 4.8 | 12.9 | 0.00 | 0.00 | 0.00 | 31 | 1002.6 |
| 20260904232004 | 35 | 100 | 3.2 | 11.3 | 0.00 | 0.00 | 0.00 | 31 | 1002.8 |
| 20260904231506 | 35 | 104 | 4.8 | 17.7 | 0.00 | 0.00 | 0.00 | 30 | 1002.7 |
| 20260904231101 | 35 | 103 | 6.4 | 17.7 | 0.00 | 0.00 | 0.00 | 30 | 1002.8 |
| 20260904230600 | 35 | 78 | 3.2 | 12.9 | 0.00 | 0.00 | 0.00 | 31 | 1002.7 |
| 20260904230058 | 35 | 99 | 4.8 | 14.5 | 0.00 | 0.00 | 0.00 | 31 | 1002.8 |
| 20260904225556 | 35 | 113 | 6.4 | 14.5 | 0.00 | 0.00 | 0.00 | 31 | 1002.9 |
| 20260904225057 | 35 | 46 | 3.2 | 16.1 | 0.00 | 0.00 | 0.00 | 32 | 1002.8 |
| 20260904224601 | 35 | 99 | 8.0 | 17.7 | 0.00 | 0.00 | 0.00 | 31 | 1003.0 |
| 20260904224054 | 35 | 139 | 9.7 | 17.7 | 0.00 | 0.00 | 0.00 | 31 | 1003.0 |
| 20260904223551 | 35 | 132 | 6.4 | 22.5 | 0.00 | 0.00 | 0.00 | 31 | 1003.2 |
| 20260904223053 | 35 | 100 | 8.0 | 17.7 | 0.00 | 0.00 | 0.00 | 32 | 1003.1 |
| 20260904222045 | 35 | 101 | 8.0 | 16.1 | 0.00 | 0.00 | 0.00 | 31 | 1003.2 |
| 20260904221545 | 35 | 127 | 9.7 | 25.7 | 0.00 | 0.00 | 0.00 | 32 | 1003.3 |
| 20260904221042 | 35 | 120 | 11.3 | 25.7 | 0.00 | 0.00 | 0.00 | 31 | 1003.5 |
| 20260904220543 | 35 | 92 | 11.3 | 19.3 | 0.00 | 0.00 | 0.00 | 31 | 1003.5 |
| 20260904220105 | 35 | 130 | 9.7 | 16.1 | 0.00 | 0.00 | 0.00 | 31 | 1003.5 |
| 20260904215541 | 34 | 167 | 6.4 | 20.9 | 0.00 | 0.00 | 0.00 | 30 | 1003.6 |
| 20260904215043 | 34 | 126 | 11.3 | 20.9 | 0.00 | 0.00 | 0.00 | 30 | 1003.6 |
| 20260904214538 | 34 | 121 | 12.9 | 29.0 | 0.00 | 0.00 | 0.00 | 30 | 1003.7 |
| 20260904214037 | 34 | 125 | 17.7 | 29.0 | 0.00 | 0.00 | 0.00 | 30 | 1003.8 |
| 20260904213539 | 34 | 76 | 11.3 | 19.3 | 0.00 | 0.00 | 0.00 | 34 | 1003.7 |
| 20260904213037 | 33 | 130 | 12.9 | 24.1 | 0.00 | 0.00 | 0.00 | 36 | 1003.9 |
| 20260904212035 | 33 | 119 | 8.0 | 24.1 | 0.00 | 0.00 | 0.00 | 37 | 1004.1 |
| 20260904211538 | 33 | 101 | 11.3 | 25.7 | 0.00 | 0.00 | 0.00 | 37 | 1004.0 |
| 20260904211032 | 33 | 142 | 16.1 | 25.7 | 0.00 | 0.00 | 0.00 | 37 | 1003.9 |
| 20260904210530 | 33 | 138 | 17.7 | 29.0 | 0.00 | 0.00 | 0.00 | 38 | 1004.1 |
| 20260904210036 | 32 | 126 | 16.1 | 29.0 | 0.00 | 0.00 | 0.00 | 38 | 1004.3 |
| 20260904205531 | 33 | 111 | 9.7 | 27.4 | 0.00 | 0.00 | 0.00 | 38 | 1004.3 |
| 20260904205029 | 32 | 144 | 14.5 | 27.4 | 0.00 | 0.00 | 0.00 | 38 | 1004.4 |
| 20260904204527 | 32 | 113 | 17.7 | 27.4 | 0.00 | 0.00 | 0.00 | 39 | 1004.4 |
| 20260904204025 | 32 | 108 | 14.5 | 29.0 | 0.00 | 0.00 | 0.00 | 39 | 1004.4 |
| 20260904203529 | 32 | 136 | 19.3 | 29.0 | 0.00 | 0.00 | 0.00 | 38 | 1004.5 |
| 20260904203033 | 32 | 145 | 17.7 | 32.2 | 0.00 | 0.00 | 0.00 | 40 | 1004.6 |
| 20260904202020 | 32 | 111 | 20.9 | 32.2 | 0.00 | 0.00 | 0.00 | 40 | 1004.5 |
| 20260904201520 | 31 | 144 | 17.7 | 30.6 | 0.00 | 0.00 | 0.00 | 40 | 1004.5 |
| 20260904201023 | 31 | 144 | 16.1 | 27.4 | 0.00 | 0.00 | 0.00 | 41 | 1004.6 |
| 20260904200518 | 31 | 129 | 20.9 | 32.2 | 0.00 | 0.00 | 0.00 | 41 | 1004.6 |
| 20260904200020 | 31 | 130 | 17.7 | 30.6 | 0.00 | 0.00 | 0.00 | 42 | 1004.5 |
| 20260904195520 | 31 | 134 | 17.7 | 33.8 | 0.00 | 0.00 | 0.00 | 42 | 1004.6 |
| 20260904195014 | 31 | 146 | 17.7 | 29.0 | 0.00 | 0.00 | 0.00 | 43 | 1004.6 |
| 20260904194540 | 31 | 165 | 16.1 | 32.2 | 0.00 | 0.00 | 0.00 | 44 | 1004.8 |
| 20260904194014 | 31 | 174 | 22.5 | 30.6 | 0.00 | 0.00 | 0.00 | 43 | 1004.7 |
| 20260904193517 | 31 | 127 | 16.1 | 29.0 | 0.00 | 0.00 | 0.00 | 45 | 1004.9 |
| 20260904193012 | 30 | 129 | 20.9 | 37.0 | 0.00 | 0.00 | 0.00 | 45 | 1004.9 |
| 20260904192013 | 30 | 103 | 17.7 | 38.6 | 0.00 | 0.00 | 0.00 | 46 | 1005.1 |
| 20260904191517 | 30 | 138 | 20.9 | 30.6 | 0.00 | 0.00 | 0.00 | 46 | 1005.1 |
| 20260904191013 | 30 | 125 | 17.7 | 30.6 | 0.00 | 0.00 | 0.00 | 46 | 1005.2 |
| 20260904190510 | 30 | 125 | 19.3 | 29.0 | 0.00 | 0.00 | 0.00 | 46 | 1005.5 |
| 20260904190009 | 30 | 130 | 12.9 | 32.2 | 0.00 | 0.00 | 0.00 | 46 | 1005.4 |
| 20260904185512 | 30 | 148 | 20.9 | 30.6 | 0.00 | 0.00 | 0.00 | 46 | 1005.4 |
| 20260904185008 | 30 | 117 | 20.9 | 30.6 | 0.00 | 0.00 | 0.00 | 46 | 1005.6 |
| 20260904184506 | 30 | 157 | 19.3 | 30.6 | 0.00 | 0.00 | 0.00 | 47 | 1005.6 |
| 20260904184005 | 29 | 100 | 19.3 | 35.4 | 0.00 | 0.00 | 0.00 | 48 | 1005.8 |
| 20260904183503 | 29 | 119 | 24.1 | 33.8 | 0.00 | 0.00 | 0.00 | 48 | 1005.8 |
| 20260904183003 | 29 | 144 | 19.3 | 32.2 | 0.00 | 0.00 | 0.00 | 48 | 1005.9 |
| 20260904182006 | 28 | 146 | 24.1 | 33.8 | 0.00 | 0.00 | 0.00 | 48 | 1006.1 |
| 20260904181501 | 28 | 144 | 20.9 | 37.0 | 0.00 | 0.00 | 0.00 | 49 | 1006.1 |
| 20260904181103 | 28 | 124 | 25.7 | 40.2 | 0.00 | 0.00 | 0.00 | 49 | 1006.1 |
| 20260904180558 | 28 | 114 | 20.9 | 43.5 | 0.00 | 0.00 | 0.00 | 49 | 1006.1 |
| 20260904180113 | 28 | 115 | 19.3 | 40.2 | 0.00 | 0.00 | 0.00 | 49 | 1006.2 |
| 20260904175555 | 28 | 120 | 27.4 | 38.6 | 0.00 | 0.00 | 0.00 | 49 | 1006.3 |
| 20260904175054 | 28 | 130 | 24.1 | 38.6 | 0.00 | 0.00 | 0.00 | 51 | 1006.2 |
| 20260904174608 | 27 | 155 | 22.5 | 37.0 | 0.00 | 0.00 | 0.00 | 51 | 1006.6 |
| 20260904174053 | 27 | 136 | 17.7 | 32.2 | 0.00 | 0.00 | 0.00 | 53 | 1006.6 |
| 20260904173550 | 27 | 138 | 19.3 | 35.4 | 0.00 | 0.00 | 0.00 | 52 | 1006.7 |
| 20260904173050 | 27 | 145 | 25.7 | 35.4 | 0.00 | 0.00 | 0.00 | 52 | 1006.7 |
| 20260904172051 | 27 | 134 | 22.5 | 37.0 | 0.00 | 0.00 | 0.00 | 53 | 1006.8 |
| 20260904171549 | 26 | 132 | 27.4 | 38.6 | 0.00 | 0.00 | 0.00 | 53 | 1007.1 |
| 20260904171048 | 27 | 154 | 22.5 | 40.2 | 0.00 | 0.00 | 0.00 | 52 | 1007.5 |
| 20260904170548 | 27 | 123 | 19.3 | 38.6 | 0.00 | 0.00 | 0.00 | 53 | 1007.5 |
| 20260904170049 | 27 | 128 | 22.5 | 35.4 | 0.00 | 0.00 | 0.00 | 53 | 1007.2 |
| 20260904165547 | 26 | 138 | 20.9 | 35.4 | 0.00 | 0.00 | 0.00 | 51 | 1007.3 |
| 20260904165046 | 26 | 141 | 17.7 | 35.4 | 0.00 | 0.00 | 0.00 | 56 | 1007.4 |
| 20260904164545 | 26 | 128 | 17.7 | 32.2 | 0.00 | 0.00 | 0.00 | 57 | 1007.3 |
| 20260904164044 | 26 | 101 | 14.5 | 24.1 | 0.00 | 0.00 | 0.00 | 59 | 1007.5 |
| 20260904163542 | 25 | 102 | 16.1 | 29.0 | 0.00 | 0.00 | 0.00 | 60 | 1007.3 |
| 20260904163050 | 25 | 89 | 16.1 | 27.4 | 0.00 | 0.00 | 0.00 | 60 | 1007.8 |
| 20260904162038 | 25 | 94 | 16.1 | 27.4 | 0.00 | 0.00 | 0.00 | 62 | 1007.9 |
| 20260904161538 | 25 | 121 | 11.3 | 24.1 | 0.00 | 0.00 | 0.00 | 64 | 1007.7 |
| 20260904161037 | 25 | 121 | 14.5 | 24.1 | 0.00 | 0.00 | 0.00 | 65 | 1007.8 |
| 20260904160535 | 24 | 105 | 12.9 | 25.7 | 0.00 | 0.00 | 0.00 | 67 | 1007.7 |
| 20260904160034 | 24 | 113 | 11.3 | 25.7 | 0.00 | 0.00 | 0.00 | 68 | 1007.7 |
| 20260904155532 | 23 | 108 | 12.9 | 27.4 | 0.00 | 0.00 | 0.00 | 67 | 1007.9 |
| 20260904155031 | 23 | 90 | 14.5 | 27.4 | 0.00 | 0.00 | 0.00 | 69 | 1007.9 |
| 20260904154530 | 23 | 103 | 16.1 | 25.7 | 0.00 | 0.00 | 0.00 | 70 | 1007.9 |
| 20260904154029 | 23 | 103 | 12.9 | 22.5 | 0.00 | 0.00 | 0.00 | 72 | 1008.2 |
| 20260904153528 | 23 | 92 | 12.9 | 24.1 | 0.00 | 0.00 | 0.00 | 72 | 1008.1 |
| 20260904153034 | 22 | 117 | 12.9 | 24.1 | 0.00 | 0.00 | 0.00 | 72 | 1008.2 |
| 20260904152030 | 22 | 108 | 12.9 | 25.7 | 0.00 | 0.00 | 0.00 | 74 | 1008.3 |
| 20260904151530 | 22 | 136 | 14.5 | 29.0 | 0.00 | 0.00 | 0.00 | 75 | 1008.2 |
| 20260904151028 | 22 | 108 | 16.1 | 29.0 | 0.00 | 0.00 | 0.00 | 75 | 1008.2 |
| 20260904150527 | 22 | 113 | 16.1 | 24.1 | 0.00 | 0.00 | 0.00 | 76 | 1008.3 |
| 20260904150025 | 21 | 88 | 9.7 | 19.3 | 0.00 | 0.00 | 0.00 | 77 | 1008.2 |
| 20260904145525 | 21 | 132 | 14.5 | 25.7 | 0.00 | 0.00 | 0.00 | 77 | 1008.2 |
| 20260904145024 | 21 | 122 | 12.9 | 29.0 | 0.00 | 0.00 | 0.00 | 77 | 1008.2 |
| 20260904144524 | 21 | 96 | 12.9 | 29.0 | 0.00 | 0.00 | 0.00 | 77 | 1008.4 |
| 20260904144023 | 21 | 117 | 9.7 | 24.1 | 0.00 | 0.00 | 0.00 | 78 | 1008.3 |
| 20260904143522 | 21 | 144 | 11.3 | 24.1 | 0.00 | 0.00 | 0.00 | 79 | 1008.2 |
| 20260904143023 | 21 | 106 | 11.3 | 20.9 | 0.00 | 0.00 | 0.00 | 80 | 1008.3 |
| 20260904142025 | 20 | 101 | 11.3 | 22.5 | 0.00 | 0.00 | 0.00 | 82 | 1008.2 |
| 20260904141519 | 20 | 114 | 9.7 | 22.5 | 0.00 | 0.00 | 0.00 | 83 | 1008.2 |
| 20260904141025 | 19 | 126 | 8.0 | 22.5 | 0.00 | 0.00 | 0.00 | 85 | 1008.3 |
| 20260904140515 | 19 | 111 | 9.7 | 22.5 | 0.00 | 0.00 | 0.00 | 85 | 1008.4 |
| 20260904140014 | 18 | 116 | 9.7 | 20.9 | 0.00 | 0.00 | 0.00 | 87 | 1008.3 |
| 20260904135513 | 18 | 122 | 12.9 | 20.9 | 0.00 | 0.00 | 0.00 | 89 | 1008.5 |
| 20260904135013 | 18 | 101 | 6.4 | 19.3 | 0.00 | 0.00 | 0.00 | 91 | 1008.3 |
| 20260904134510 | 17 | 105 | 9.7 | 17.7 | 0.00 | 0.00 | 0.00 | 92 | 1008.5 |
| 20260904134011 | 17 | 106 | 4.8 | 12.9 | 0.00 | 0.00 | 0.00 | 94 | 1008.3 |
| 20260904133507 | 16 | 85 | 4.8 | 12.9 | 0.00 | 0.00 | 0.00 | 95 | 1008.4 |
| 20260904133007 | 15 | 66 | 1.6 | 8.0 | 0.00 | 0.00 | 0.00 | 94 | 1008.5 |
| 20260904132002 | 15 | 30 | 1.6 | 4.8 | 0.00 | 0.00 | 0.00 | 93 | 1008.4 |
| 20260904131502 | 15 | 30 | 0.0 | 3.2 | 0.00 | 0.00 | 0.00 | 94 | 1008.4 |
| 20260904131002 | 15 | 30 | 0.0 | 3.2 | 0.00 | 0.00 | 0.00 | 95 | 1008.4 |
| 20260904130502 | 15 | 30 | 0.0 | 6.4 | 0.00 | 0.00 | 0.00 | 95 | 1008.4 |
| 20260904130002 | 14 | 30 | 1.6 | 6.4 | 0.00 | 0.00 | 0.00 | 94 | 1008.4 |
| 20260904125601 | 14 | 5 | 0.0 | 0.0 | 0.00 | 0.00 | 0.00 | 94 | 1008.4 |
| 20260904125059 | 13 | 5 | 0.0 | 3.2 | 0.00 | 0.00 | 0.00 | 94 | 1008.3 |
| 20260904124607 | 13 | 5 | 0.0 | 3.2 | 0.00 | 0.00 | 0.00 | 94 | 1008.4 |
| 20260904124056 | 13 | 5 | 0.0 | 0.0 | 0.00 | 0.00 | 0.00 | 94 | 1008.3 |
| 20260904123558 | 13 | 5 | 0.0 | 3.2 | 0.00 | 0.00 | 0.00 | 94 | 1008.5 |
| 20260904123112 | 13 | 5 | 1.6 | 4.8 | 0.00 | 0.00 | 0.00 | 93 | 1008.4 |
| 20260904122058 | 13 | 5 | 1.6 | 4.8 | 0.00 | 0.00 | 0.00 | 94 | 1008.4 |
| 20260904121602 | 13 | 5 | 1.6 | 4.8 | 0.00 | 0.00 | 0.00 | 93 | 1008.4 |
| 20260904121057 | 13 | 5 | 1.6 | 4.8 | 0.00 | 0.00 | 0.00 | 93 | 1008.4 |
| 20260904120557 | 13 | 5 | 0.0 | 0.0 | 0.00 | 0.00 | 0.00 | 93 | 1008.4 |
| 20260904120104 | 13 | 5 | 0.0 | 4.8 | 0.00 | 0.00 | 0.00 | 93 | 1008.3 |
| 20260904115557 | 13 | 5 | 1.6 | 4.8 | 0.00 | 0.00 | 0.00 | 93 | 1008.4 |
| 20260904115057 | 13 | 5 | 0.0 | 0.0 | 0.00 | 0.00 | 0.00 | 93 | 1008.4 |
| 20260904114557 | 13 | 5 | 0.0 | 3.2 | 0.00 | 0.00 | 0.00 | 93 | 1008.4 |
| 20260904114058 | 13 | 5 | 1.6 | 4.8 | 0.00 | 0.00 | 0.00 | 93 | 1008.4 |
| 20260904113557 | 13 | 5 | 0.0 | 0.0 | 0.00 | 0.00 | 0.00 | 93 | 1008.3 |
| 20260904113101 | 13 | 5 | 0.0 | 0.0 | 0.00 | 0.00 | 0.00 | 93 | 1008.3 |
| 20260904112059 | 13 | 5 | 0.0 | 0.0 | 0.00 | 0.00 | 0.00 | 93 | 1008.3 |
| 20260904111558 | 13 | 5 | 0.0 | 3.2 | 0.00 | 0.00 | 0.00 | 93 | 1008.3 |
| 20260904111058 | 13 | 5 | 0.0 | 4.8 | 0.00 | 0.00 | 0.00 | 93 | 1008.3 |
| 20260904110558 | 13 | 5 | 1.6 | 4.8 | 0.00 | 0.00 | 0.00 | 93 | 1008.3 |
| 20260904110105 | 13 | 5 | 1.6 | 4.8 | 0.00 | 0.00 | 0.00 | 93 | 1008.2 |
| 20260904105559 | 12 | 5 | 0.0 | 3.2 | 0.00 | 0.00 | 0.00 | 92 | 1008.4 |
| 20260904105057 | 12 | 5 | 0.0 | 0.0 | 0.00 | 0.00 | 0.00 | 92 | 1008.2 |
| 20260904104601 | 12 | 5 | 0.0 | 1.6 | 0.00 | 0.00 | 0.00 | 91 | 1008.3 |
| 20260904104054 | 13 | 5 | 0.0 | 4.8 | 0.00 | 0.00 | 0.00 | 91 | 1008.3 |
| 20260904103555 | 13 | 5 | 1.6 | 4.8 | 0.00 | 0.00 | 0.00 | 92 | 1008.3 |
| 20260904103054 | 13 | 5 | 1.6 | 4.8 | 0.00 | 0.00 | 0.00 | 92 | 1008.5 |
| 20260904102052 | 13 | 5 | 3.2 | 4.8 | 0.00 | 0.00 | 0.00 | 92 | 1008.5 |
| 20260904101604 | 13 | 5 | 0.0 | 4.8 | 0.00 | 0.00 | 0.00 | 91 | 1008.4 |
| 20260904101052 | 13 | 5 | 0.0 | 3.2 | 0.00 | 0.00 | 0.00 | 92 | 1008.5 |
| 20260904100553 | 13 | 5 | 0.0 | 3.2 | 0.00 | 0.00 | 0.00 | 91 | 1008.5 |
| 20260904100058 | 13 | 5 | 0.0 | 4.8 | 0.00 | 0.00 | 0.00 | 91 | 1008.6 |
| 20260904095550 | 13 | 5 | 1.6 | 4.8 | 0.00 | 0.00 | 0.00 | 90 | 1008.5 |
| 20260904095051 | 13 | 5 | 1.6 | 4.8 | 0.00 | 0.00 | 0.00 | 90 | 1008.3 |
| 20260904094552 | 13 | 5 | 1.6 | 4.8 | 0.00 | 0.00 | 0.00 | 91 | 1008.4 |
| 20260904094049 | 13 | 5 | 0.0 | 3.2 | 0.00 | 0.00 | 0.00 | 91 | 1008.3 |
| 20260904093549 | 13 | 5 | 0.0 | 1.6 | 0.00 | 0.00 | 0.00 | 91 | 1008.6 |
| 20260904093110 | 13 | 5 | 0.0 | 0.0 | 0.00 | 0.00 | 0.00 | 90 | 1008.4 |
| 20260904092046 | 13 | 5 | 0.0 | 3.2 | 0.00 | 0.00 | 0.00 | 90 | 1008.4 |
| 20260904091546 | 13 | 5 | 0.0 | 3.2 | 0.00 | 0.00 | 0.00 | 90 | 1008.3 |
| 20260904091043 | 13 | 5 | 0.0 | 3.2 | 0.00 | 0.00 | 0.00 | 89 | 1008.3 |
| 20260904090543 | 13 | 5 | 1.6 | 4.8 | 0.00 | 0.00 | 0.00 | 89 | 1008.1 |
| 20260904090047 | 13 | 5 | 1.6 | 4.8 | 0.00 | 0.00 | 0.00 | 89 | 1008.3 |
| 20260904090012 | 14 | 5 | 1.6 | 4.8 | 0.00 | 0.00 | 0.00 | 89 | 1008.3 |
| 20260904085545 | 14 | 5 | 1.6 | 4.8 | 0.00 | 0.00 | 0.00 | 88 | 1008.2 |
| 20260904085040 | 14 | 5 | 0.0 | 0.0 | 0.00 | 0.00 | 0.00 | 88 | 1008.2 |
| 20260904084541 | 14 | 5 | 0.0 | 0.0 | 0.00 | 0.00 | 0.00 | 88 | 1008.2 |
| 20260904084040 | 14 | 5 | 0.0 | 0.0 | 0.00 | 0.00 | 0.00 | 88 | 1008.3 |
| 20260904083539 | 14 | 5 | 0.0 | 0.0 | 0.00 | 0.00 | 0.00 | 88 | 1008.0 |
| 20260904083040 | 14 | 5 | 0.0 | 0.0 | 0.00 | 0.00 | 0.00 | 88 | 1008.1 |
| 20260904082039 | 14 | 5 | 0.0 | 0.0 | 0.00 | 0.00 | 0.00 | 87 | 1008.1 |
| 20260904081541 | 14 | 5 | 0.0 | 0.0 | 0.00 | 0.00 | 0.00 | 86 | 1008.0 |
| 20260904081040 | 14 | 5 | 0.0 | 0.0 | 0.00 | 0.00 | 0.00 | 86 | 1008.0 |
| 20260904080538 | 15 | 5 | 0.0 | 0.0 | 0.00 | 0.00 | 0.00 | 85 | 1008.0 |
| 20260904080040 | 15 | 5 | 0.0 | 3.2 | 0.00 | 0.00 | 0.00 | 84 | 1008.1 |
| 20260904075535 | 15 | 5 | 0.0 | 3.2 | 0.00 | 0.00 | 0.00 | 84 | 1008.0 |
| 20260904075034 | 15 | 5 | 0.0 | 4.8 | 0.00 | 0.00 | 0.00 | 83 | 1007.9 |
| 20260904074539 | 15 | 5 | 3.2 | 4.8 | 0.00 | 0.00 | 0.00 | 84 | 1008.1 |
| 20260904074036 | 15 | 5 | 1.6 | 4.8 | 0.00 | 0.00 | 0.00 | 83 | 1008.1 |
| 20260904073533 | 15 | 5 | 1.6 | 3.2 | 0.00 | 0.00 | 0.00 | 82 | 1008.0 |
| 20260904073032 | 16 | 5 | 0.0 | 3.2 | 0.00 | 0.00 | 0.00 | 82 | 1008.2 |
| 20260904072036 | 16 | 5 | 0.0 | 3.2 | 0.00 | 0.00 | 0.00 | 81 | 1008.1 |
| 20260904071536 | 16 | 5 | 0.0 | 3.2 | 0.00 | 0.00 | 0.00 | 81 | 1007.9 |
| 20260904071035 | 16 | 5 | 1.6 | 3.2 | 0.00 | 0.00 | 0.00 | 81 | 1008.0 |
| 20260904070536 | 16 | 5 | 0.0 | 3.2 | 0.00 | 0.00 | 0.00 | 80 | 1008.1 |
| 20260904070045 | 16 | 5 | 0.0 | 4.8 | 0.00 | 0.00 | 0.00 | 80 | 1007.9 |
| 20260904065537 | 16 | 5 | 0.0 | 3.2 | 0.00 | 0.00 | 0.00 | 79 | 1007.9 |
| 20260904065033 | 16 | 5 | 0.0 | 3.2 | 0.00 | 0.00 | 0.00 | 79 | 1007.8 |
| 20260904064543 | 16 | 5 | 0.0 | 3.2 | 0.00 | 0.00 | 0.00 | 78 | 1007.7 |
| 20260904064034 | 16 | 5 | 0.0 | 4.8 | 0.00 | 0.00 | 0.00 | 78 | 1007.6 |
| 20260904063531 | 16 | 5 | 1.6 | 4.8 | 0.00 | 0.00 | 0.00 | 77 | 1007.8 |
| 20260904063035 | 16 | 5 | 0.0 | 4.8 | 0.00 | 0.00 | 0.00 | 76 | 1007.7 |
| 20260904062027 | 16 | 5 | 0.0 | 3.2 | 0.00 | 0.00 | 0.00 | 75 | 1007.8 |
| 20260904061526 | 16 | 5 | 0.0 | 3.2 | 0.00 | 0.00 | 0.00 | 74 | 1007.8 |
| 20260904061026 | 16 | 5 | 0.0 | 3.2 | 0.00 | 0.00 | 0.00 | 73 | 1007.7 |
| 20260904060524 | 16 | 5 | 0.0 | 3.2 | 0.00 | 0.00 | 0.00 | 72 | 1007.6 |
| 20260904060024 | 16 | 5 | 0.0 | 4.8 | 0.00 | 0.00 | 0.00 | 71 | 1007.5 |
| 20260904055523 | 16 | 5 | 0.0 | 4.8 | 0.00 | 0.00 | 0.00 | 71 | 1007.5 |
| 20260904055024 | 16 | 5 | 0.0 | 3.2 | 0.00 | 0.00 | 0.00 | 70 | 1007.6 |
| 20260904054530 | 16 | 5 | 0.0 | 3.2 | 0.00 | 0.00 | 0.00 | 69 | 1007.7 |
| 20260904054023 | 16 | 5 | 0.0 | 4.8 | 0.00 | 0.00 | 0.00 | 69 | 1007.6 |
| 20260904053526 | 16 | 5 | 1.6 | 4.8 | 0.00 | 0.00 | 0.00 | 69 | 1007.5 |
| 20260904053022 | 16 | 5 | 1.6 | 6.4 | 0.00 | 0.00 | 0.00 | 67 | 1007.5 |
| 20260904052024 | 16 | 5 | 3.2 | 4.8 | 0.00 | 0.00 | 0.00 | 67 | 1007.5 |
| 20260904051524 | 16 | 5 | 1.6 | 4.8 | 0.00 | 0.00 | 0.00 | 66 | 1007.2 |
| 20260904051023 | 17 | 5 | 1.6 | 6.4 | 0.00 | 0.00 | 0.00 | 66 | 1007.2 |
| 20260904050523 | 16 | 5 | 3.2 | 4.8 | 0.00 | 0.00 | 0.00 | 67 | 1007.2 |
| 20260904050023 | 17 | 5 | 0.0 | 4.8 | 0.00 | 0.00 | 0.00 | 64 | 1007.3 |
| 20260904045525 | 17 | 5 | 0.0 | 4.8 | 0.00 | 0.00 | 0.00 | 64 | 1007.2 |
| 20260904045023 | 17 | 5 | 3.2 | 4.8 | 0.00 | 0.00 | 0.00 | 63 | 1007.3 |
| 20260904044531 | 17 | 5 | 3.2 | 4.8 | 0.00 | 0.00 | 0.00 | 62 | 1007.2 |
| 20260904044023 | 18 | 5 | 3.2 | 4.8 | 0.00 | 0.00 | 0.00 | 62 | 1007.0 |
| 20260904043524 | 18 | 5 | 3.2 | 4.8 | 0.00 | 0.00 | 0.00 | 62 | 1007.2 |
| 20260904043022 | 18 | 5 | 0.0 | 4.8 | 0.00 | 0.00 | 0.00 | 60 | 1007.3 |
| 20260904042019 | 19 | 5 | 3.2 | 6.4 | 0.00 | 0.00 | 0.00 | 59 | 1007.0 |
| 20260904041517 | 18 | 5 | 3.2 | 4.8 | 0.00 | 0.00 | 0.00 | 60 | 1007.0 |
| 20260904041017 | 18 | 360 | 0.0 | 3.2 | 0.00 | 0.00 | 0.00 | 60 | 1007.0 |
| 20260904040521 | 18 | 360 | 0.0 | 4.8 | 0.00 | 0.00 | 0.00 | 60 | 1007.0 |
| 20260904040016 | 18 | 360 | 0.0 | 4.8 | 0.00 | 0.00 | 0.00 | 60 | 1006.6 |
| 20260904035517 | 18 | 360 | 0.0 | 4.8 | 0.00 | 0.00 | 0.00 | 61 | 1006.5 |
| 20260904035016 | 18 | 360 | 1.6 | 6.4 | 0.00 | 0.00 | 0.00 | 62 | 1006.5 |
| 20260904034538 | 18 | 360 | 4.8 | 6.4 | 0.00 | 0.00 | 0.00 | 64 | 1006.4 |
| 20260904034019 | 18 | 360 | 1.6 | 4.8 | 0.00 | 0.00 | 0.00 | 64 | 1006.5 |
| 20260904033516 | 18 | 360 | 1.6 | 4.8 | 0.00 | 0.00 | 0.00 | 65 | 1006.6 |
| 20260904033015 | 18 | 360 | 3.2 | 4.8 | 0.00 | 0.00 | 0.00 | 63 | 1006.5 |
| 20260904032016 | 19 | 360 | 4.8 | 8.0 | 0.00 | 0.00 | 0.00 | 60 | 1006.7 |
| 20260904031517 | 19 | 334 | 3.2 | 4.8 | 0.00 | 0.00 | 0.00 | 60 | 1006.9 |
| 20260904031016 | 19 | 334 | 0.0 | 3.2 | 0.00 | 0.00 | 0.00 | 55 | 1006.9 |
| 20260904030516 | 19 | 334 | 0.0 | 3.2 | 0.00 | 0.00 | 0.00 | 55 | 1006.7 |
| 20260904030016 | 19 | 334 | 1.6 | 3.2 | 0.00 | 0.00 | 0.00 | 54 | 1006.7 |
| 20260904025516 | 20 | 334 | 0.0 | 3.2 | 0.00 | 0.00 | 0.00 | 53 | 1006.7 |
| 20260904025016 | 20 | 334 | 0.0 | 3.2 | 0.00 | 0.00 | 0.00 | 51 | 1006.8 |
| 20260904024516 | 20 | 334 | 0.0 | 3.2 | 0.00 | 0.00 | 0.00 | 50 | 1006.7 |
| 20260904024014 | 20 | 334 | 1.6 | 4.8 | 0.00 | 0.00 | 0.00 | 49 | 1006.8 |
| 20260904023513 | 21 | 334 | 0.0 | 4.8 | 0.00 | 0.00 | 0.00 | 49 | 1006.5 |
| 20260904023013 | 21 | 333 | 0.0 | 1.6 | 0.00 | 0.00 | 0.00 | 49 | 1006.4 |
| 20260904022017 | 21 | 333 | 0.0 | 0.0 | 0.00 | 0.00 | 0.00 | 47 | 1006.4 |
| 20260904021512 | 22 | 333 | 0.0 | 3.2 | 0.00 | 0.00 | 0.00 | 46 | 1006.4 |
| 20260904021012 | 22 | 336 | 0.0 | 8.0 | 0.00 | 0.00 | 0.00 | 45 | 1006.3 |
| 20260904020512 | 22 | 336 | 1.6 | 8.0 | 0.00 | 0.00 | 0.00 | 44 | 1006.1 |
| 20260904020012 | 23 | 287 | 0.0 | 4.8 | 0.00 | 0.00 | 0.00 | 44 | 1006.1 |
| 20260904015515 | 23 | 283 | 0.0 | 4.8 | 0.00 | 0.00 | 0.00 | 44 | 1006.0 |
| 20260904015012 | 23 | 265 | 0.0 | 0.0 | 0.00 | 0.00 | 0.00 | 43 | 1006.1 |
| 20260904014511 | 24 | 265 | 0.0 | 0.0 | 0.00 | 0.00 | 0.00 | 42 | 1006.0 |
| 20260904014012 | 24 | 265 | 0.0 | 0.0 | 0.00 | 0.00 | 0.00 | 42 | 1005.9 |
| 20260904013510 | 24 | 265 | 0.0 | 1.6 | 0.00 | 0.00 | 0.00 | 41 | 1005.8 |
| 20260904013011 | 25 | 265 | 0.0 | 4.8 | 0.00 | 0.00 | 0.00 | 41 | 1005.8 |
| 20260904012012 | 26 | 265 | 3.2 | 6.4 | 0.00 | 0.00 | 0.00 | 38 | 1005.6 |
| 20260904011537 | 26 | 263 | 1.6 | 6.4 | 0.00 | 0.00 | 0.00 | 37 | 1005.8 |
| 20260904011012 | 27 | 263 | 1.6 | 4.8 | 0.00 | 0.00 | 0.00 | 36 | 1005.7 |
| 20260904010512 | 27 | 259 | 1.6 | 6.4 | 0.00 | 0.00 | 0.00 | 35 | 1005.6 |
| 20260904010012 | 28 | 259 | 1.6 | 6.4 | 0.00 | 0.00 | 0.00 | 32 | 1005.6 |
| 20260904005517 | 28 | 247 | 1.6 | 9.7 | 0.00 | 0.00 | 0.00 | 28 | 1005.6 |
| 20260904005011 | 28 | 246 | 3.2 | 11.3 | 0.00 | 0.00 | 0.00 | 29 | 1005.2 |
| 20260904004511 | 28 | 246 | 4.8 | 17.7 | 0.00 | 0.00 | 0.00 | 25 | 1005.4 |
| 20260904004014 | 28 | 242 | 9.7 | 22.5 | 0.00 | 0.00 | 0.00 | 25 | 1005.3 |
| 20260904003521 | 28 | 231 | 14.5 | 25.7 | 0.00 | 0.00 | 0.00 | 24 | 1005.3 |
| 20260904003013 | 28 | 234 | 12.9 | 25.7 | 0.00 | 0.00 | 0.00 | 24 | 1005.2 |
| 20260904002013 | 29 | 227 | 16.1 | 24.1 | 0.00 | 0.00 | 0.00 | 25 | 1005.2 |
| 20260904001512 | 29 | 229 | 12.9 | 27.4 | 0.00 | 0.00 | 0.00 | 25 | 1005.3 |
| 20260904001012 | 29 | 257 | 17.7 | 27.4 | 0.00 | 0.00 | 0.00 | 24 | 1005.2 |
| 20260904000514 | 30 | 239 | 11.3 | 25.7 | 0.00 | 0.00 | 0.00 | 23 | 1005.1 |
| 20260904000020 | 30 | 236 | 14.5 | 25.7 | 0.00 | 0.00 | 0.00 | 22 | 1004.9 |
| 20260903235514 | 30 | 241 | 14.5 | 27.4 | 0.00 | 0.00 | 0.00 | 22 | 1004.9 |
| 20260903235011 | 30 | 246 | 16.1 | 27.4 | 0.00 | 0.00 | 0.00 | 21 | 1004.8 |